This is the latest recevied weather packets stored in our database for station/object N7CW. If no packets are shown the sender has not sent any weather packets the latest 10 day(s).
| Time | Temp. | Humidity | Pressure | Rain* | Wind** | Luminosity | Snow |
|---|---|---|---|---|---|---|---|
| 1778100569 | 20° C | 27% | 1018 hPa | 0 mm | - | 785 W/m² | - |
| 1778100267 | 18.33° C | 28% | 1018.1 hPa | 0 mm | - | 785 W/m² | - |
| 1778099964 | 18.33° C | 29% | 1018.4 hPa | 0 mm | - | 785 W/m² | - |
| 1778099661 | 18.89° C | 28% | 1018.2 hPa | 0 mm | - | 793 W/m² | - |
| 1778099358 | 18.33° C | 29% | 1018.4 hPa | 0 mm | - | 799 W/m² | - |
| 1778099054 | 18.33° C | 29% | 1018.1 hPa | 0 mm | - | 803 W/m² | - |
| 1778098751 | 17.78° C | 29% | 1018.4 hPa | 0 mm | - | 805 W/m² | - |
| 1778098449 | 18.33° C | 29% | 1018.4 hPa | 0 mm | - | 812 W/m² | - |
| 1778098145 | 18.89° C | 29% | 1018.2 hPa | 0 mm | - | 813 W/m² | - |
| 1778097841 | 18.33° C | 29% | 1018.1 hPa | 0 mm | - | 815 W/m² | - |
| 1778097538 | 18.33° C | 29% | 1018.2 hPa | 0 mm | - | 818 W/m² | - |
| 1778097235 | 17.78° C | 29% | 1018.6 hPa | 0 mm | - | 820 W/m² | - |
| 1778096932 | 17.78° C | 30% | 1018.5 hPa | 0 mm | - | 823 W/m² | - |
| 1778096629 | 17.22° C | 31% | 1018.5 hPa | 0 mm | - | 826 W/m² | - |
| 1778096326 | 17.78° C | 30% | 1018.5 hPa | 0 mm | - | 826 W/m² | - |
| 1778096022 | 17.78° C | 29% | 1018.6 hPa | 0 mm | - | 828 W/m² | - |
| 1778095719 | 17.78° C | 30% | 1018.6 hPa | 0 mm | - | 831 W/m² | - |
| 1778095415 | 17.22° C | 30% | 1018.5 hPa | 0 mm | - | 830 W/m² | - |
| 1778095113 | 17.22° C | 30% | 1018.6 hPa | 0 mm | - | 829 W/m² | - |
| 1778094809 | 16.67° C | 31% | 1018.5 hPa | 0 mm | - | 830 W/m² | - |
| 1778094506 | 16.67° C | 31% | 1018.6 hPa | 0 mm | - | 829 W/m² | - |
| 1778094202 | 17.22° C | 30% | 1018.6 hPa | 0 mm | - | 828 W/m² | - |
| 1778093900 | 16.67° C | 30% | 1018.4 hPa | 0 mm | - | 827 W/m² | - |
| 1778093596 | 16.67° C | 30% | 1018.5 hPa | 0 mm | - | 825 W/m² | - |
| 1778093293 | 17.22° C | 30% | 1018.2 hPa | 0 mm | - | 822 W/m² | - |
* Rain latest hour (hover to see other rain measurements)
** Current wind speed in m/s (hover to see current wind gust speed)